Anchorage Merrill, AK

8:56 AM AKDT on July 25, 2017 (GMT -0800)
Merrill

Weather History for PAMR - January, 2011

Change the Weather History Date:

Friday, January 21, 2011

  Actual Average Record
Temperature  
Mean Temperature 24 °F -  
Max Temperature 26 °F 22 °F 44 °F (2008)
Min Temperature 21 °F 9 °F -15 °F (1999)
Degree Days  
Heating Degree Days 42    
Moisture  
Dew Point 17 °F    
Average Humidity 77    
Maximum Humidity 82    
Minimum Humidity 69    
Precipitation  
Precipitation 0.03 in - - ()
Snow  
Snow 0.00 in - - ()
Snow Depth 5.00 in    
Sea Level Pressure  
Sea Level Pressure 29.24 in    
Wind  
Wind Speed 4 mph (NNE)    
Max Wind Speed 8 mph    
Max Gust Speed -    
Visibility 10 miles    
Events Snow    
Averages and records for this station are not official NWS values.
T = Trace of Precipitation, MM = Missing Value Source: NWS Daily Summary

Daily Weather History Graph

Daily Weather History Graph

Search for Another Location

Airport or City:

Trip Planner

Search our weather history database for the weather conditions in past years. The results will help you decide how hot, cold, wet, or windy it might be!

Date:

Astronomy

Jan. 21, 2011 Rise Set
Actual Time 9:45 AM AKST 4:36 PM AKST
Civil Twilight 8:51 AM AKST 5:30 PM AKST
Nautical Twilight 7:56 AM AKST 6:25 PM AKST
Astronomical Twilight 7:05 AM AKST 7:17 PM AKST
Moon 8:30 PM AKST (1/21) 9:50 AM AKST (1/21)
Length of Visible Light 8h 38m
Length of Day
6h 51m
Waning Gibbous, 94% of the Moon is Illuminated
Jan 21
Waning Gibbous
Jan 26
Last Quarter
Feb 2
New
Feb 10
First Quarter
Feb 17
Full

Hourly Weather History & Observations

Time (AKST) Temp. Windchill Dew Point Humidity Pressure Visibility Wind Dir Wind Speed Gust Speed Precip Events Conditions
12:29 AM 21.2 °F 11.7 °F 15.8 °F 80% 29.38 in 10.0 mi NNW 8.1 mph - N/A   Overcast
12:53 AM 21.9 °F 12.5 °F 16.0 °F 78% 29.38 in 10.0 mi NNW 8.1 mph - N/A   Overcast
1:53 AM 21.9 °F 14.5 °F 16.0 °F 78% 29.36 in 10.0 mi North 5.8 mph - N/A   Overcast
2:53 AM 21.9 °F 14.5 °F 17.1 °F 82% 29.34 in 10.0 mi North 5.8 mph - N/A   Overcast
3:53 AM 21.0 °F 16.2 °F 16.0 °F 81% 29.31 in 10.0 mi North 3.5 mph - 0.01 in   Overcast
4:53 AM 21.9 °F 17.2 °F 17.1 °F 82% 29.29 in 10.0 mi NNE 3.5 mph - N/A   Overcast
5:28 AM 23.0 °F 18.4 °F 17.6 °F 80% 29.27 in 10.0 mi NNE 3.5 mph - 0.01 in   Overcast
5:53 AM 21.9 °F 17.2 °F 17.1 °F 82% 29.27 in 10.0 mi NNE 3.5 mph - 0.01 in   Overcast
6:53 AM 21.9 °F 15.7 °F 17.1 °F 82% 29.26 in 8.0 mi NNE 4.6 mph - 0.00 in Snow Light Snow
7:53 AM 23.0 °F 17.0 °F 17.1 °F 78% 29.24 in 9.0 mi NNE 4.6 mph - 0.00 in Snow Light Snow
8:53 AM 24.1 °F 19.7 °F 18.0 °F 77% 29.24 in 9.0 mi NE 3.5 mph - 0.00 in Snow Light Snow
9:53 AM 23.0 °F 17.0 °F 18.0 °F 81% 29.23 in 9.0 mi NNE 4.6 mph - 0.00 in   Mostly Cloudy
10:53 AM 24.1 °F - 17.1 °F 75% 29.24 in 10.0 mi Calm Calm - 0.01 in   Clear
11:53 AM 25.0 °F - 16.0 °F 69% 29.25 in 10.0 mi Calm Calm - N/A   Mostly Cloudy
12:53 PM 24.1 °F - 16.0 °F 71% 29.26 in 10.0 mi Calm Calm - N/A   Mostly Cloudy
1:53 PM 25.0 °F 20.7 °F 18.0 °F 75% 29.26 in 10.0 mi SE 3.5 mph - N/A   Overcast
2:53 PM 26.1 °F - 17.1 °F 69% 29.26 in 10.0 mi Calm Calm - N/A   Overcast
3:53 PM 25.0 °F - 17.1 °F 72% 29.25 in 10.0 mi Calm Calm - N/A   Overcast
4:53 PM 26.1 °F - 18.0 °F 71% 29.24 in 10.0 mi Calm Calm - N/A   Overcast
5:53 PM 21.9 °F - 15.1 °F 75% 29.23 in 10.0 mi Calm Calm - N/A   Mostly Cloudy
6:53 PM 23.0 °F - 18.0 °F 81% 29.21 in 10.0 mi Calm Calm - N/A   Overcast
7:53 PM 23.0 °F - 17.1 °F 78% 29.21 in 10.0 mi Calm Calm - N/A   Overcast
8:53 PM 23.0 °F 18.4 °F 18.0 °F 81% 29.19 in 10.0 mi ENE 3.5 mph - N/A   Overcast
9:07 PM 23.0 °F 18.4 °F 17.6 °F 80% 29.17 in 10.0 mi ENE 3.5 mph - N/A   Mostly Cloudy
9:14 PM 23.0 °F - 17.6 °F 80% 29.17 in 10.0 mi Calm Calm - N/A   Scattered Clouds
9:42 PM 24.8 °F - 17.6 °F 74% 29.16 in 10.0 mi Calm Calm - N/A   Mostly Cloudy
9:53 PM 24.1 °F - 18.0 °F 77% 29.17 in 10.0 mi Calm Calm - N/A   Mostly Cloudy
10:32 PM 24.8 °F - 17.6 °F 74% 29.16 in 10.0 mi Calm Calm - N/A   Overcast
10:53 PM 24.1 °F - 18.0 °F 77% 29.17 in 9.0 mi Calm Calm - 0.00 in Snow Light Snow
11:53 PM 24.1 °F - 19.0 °F 81% 29.16 in 10.0 mi Calm Calm - 0.00 in Snow Light Snow
11:55 PM 24.8 °F - 19.4 °F 80% 29.15 in 9.0 mi Calm Calm - 0.00 in Snow Light Snow